N3FYI-5 Weather Reports


time (UTC)temp
C
wind
direction
speed
KPH
gust
KPH
rain 1hr
cm
rain 24hr
cm
rain mn
cm
humidity
%
barometer
mb
20260902165515 21 0 0.0 0.0 0.00 0.71 0.46 20 1024.3
20260902164713 21 0 0.0 1.6 0.00 0.71 0.46 16 1024.1
20260902163915 21 0 0.0 1.6 0.00 0.71 0.46 13 1024.2
20260902163116 21 0 0.0 1.6 0.00 0.71 0.46 14 1024.5
20260902162324 21 0 0.0 0.0 0.00 0.71 0.46 16 1024.6
20260902161521 21 0 0.0 0.0 0.00 0.71 0.46 17 1025.0
20260902160713 21 0 0.0 3.2 0.00 0.71 0.46 17 1025.2
20260902155115 20 0 0.0 1.6 0.00 0.71 0.46 18 1025.1
20260902154315 20 0 0.0 0.0 0.00 0.71 0.46 19 1025.2
20260902153517 20 0 0.0 0.0 0.00 0.71 0.46 19 1025.2
20260902152713 20 0 0.0 0.0 0.00 0.71 0.46 19 1025.2
20260902151230 20 0 0.0 0.0 0.00 0.71 0.46 20 1024.8
20260902150432 20 0 0.0 0.0 0.00 0.71 0.46 20 1024.9
20260902145628 19 0 0.0 0.0 0.00 0.71 0.46 20 1025.0
20260902144828 19 0 0.0 0.0 0.03 0.71 0.46 20 1025.2
20260902144033 19 0 0.0 0.0 0.08 0.71 0.46 20 1025.3
20260902143229 19 0 0.0 0.0 0.15 0.71 0.46 20 1025.6
20260902142436 19 0 0.0 0.0 0.23 0.71 0.46 20 1025.7
20260902141627 19 0 0.0 0.0 0.30 0.71 0.46 20 1025.4
20260902140828 19 0 0.0 0.0 0.33 0.71 0.46 20 1025.5
20260902140029 19 0 0.0 0.0 0.38 0.71 0.46 20 1025.4
20260902135231 19 0 0.0 0.0 0.41 0.71 0.46 20 1024.9
20260902134434 19 0 0.0 0.0 0.38 0.66 0.41 20 1024.7
20260902133628 18 0 0.0 0.0 0.36 0.61 0.36 20 1025.4
20260902132841 18 0 0.0 0.0 0.25 0.51 0.25 20 1025.7
20260902132032 18 0 0.0 0.0 0.20 0.46 0.20 20 1025.5
20260902131229 18 0 0.0 0.0 0.15 0.41 0.15 20 1025.4
20260902130428 18 0 0.0 0.0 0.10 0.36 0.10 20 1025.4
20260902125628 18 0 0.0 0.0 0.05 0.30 0.05 20 1025.3
20260902124834 18 0 0.0 0.0 0.03 0.28 0.03 20 1025.3
20260902124030 18 0 0.0 0.0 0.00 0.25 0.00 20 1025.0
20260902122611 18 0 0.0 0.0 0.00 0.25 0.00 20 1024.2
20260902121812 18 0 0.0 0.0 0.00 0.25 0.00 20 1024.2
20260902121011 18 0 0.0 0.0 0.00 0.25 0.00 20 1024.1
20260902120211 18 0 0.0 0.0 0.00 0.25 0.00 20 1023.9
20260902115410 18 0 0.0 0.0 0.00 0.25 0.00 20 1023.8
20260902114612 18 0 0.0 0.0 0.00 0.25 0.00 20 1023.9
20260902113811 18 0 0.0 0.0 0.00 0.25 0.00 21 1024.0
20260902113014 18 0 0.0 0.0 0.00 0.25 0.00 21 1023.6
20260902112217 18 0 0.0 0.0 0.00 0.25 0.00 20 1023.7
20260902111412 18 0 0.0 0.0 0.00 0.25 0.00 20 1023.8
20260902110611 18 0 0.0 0.0 0.00 0.25 0.00 20 1023.7
20260902105810 18 0 0.0 0.0 0.00 0.25 0.00 20 1023.5
20260902105016 18 0 0.0 0.0 0.00 0.25 0.00 20 1023.5
20260902104211 18 0 0.0 0.0 0.00 0.25 0.00 20 1023.7
20260902103414 17 0 0.0 0.0 0.00 0.25 0.00 20 1023.7
20260902102611 17 0 0.0 0.0 0.00 0.25 0.00 20 1023.6
20260902101814 17 0 0.0 0.0 0.00 0.25 0.00 20 1023.7
20260902101013 17 0 0.0 0.0 0.00 0.25 0.00 20 1023.9
20260902100211 18 0 0.0 0.0 0.00 0.25 0.00 19 1023.8
20260902095410 18 0 0.0 0.0 0.00 0.25 0.00 19 1023.8
20260902094135 18 0 0.0 0.0 0.00 0.25 0.00 19 1024.0
20260902093335 18 0 0.0 0.0 0.00 0.25 0.00 19 1023.9
20260902092554 18 0 0.0 0.0 0.00 0.25 0.00 19 1024.0
20260902091737 18 0 0.0 0.0 0.00 0.25 0.00 19 1024.0
20260902090936 18 0 0.0 0.0 0.00 0.25 0.00 19 1024.1
20260902090135 18 0 0.0 0.0 0.00 0.25 0.00 19 1024.4
20260902085335 18 0 0.0 0.0 0.00 0.25 0.00 19 1024.4
20260902084544 18 0 0.0 0.0 0.00 0.25 0.00 19 1024.3
20260902083743 18 0 0.0 0.0 0.00 0.25 0.00 19 1024.3
20260902082937 18 0 0.0 0.0 0.00 0.25 0.00 18 1024.3
20260902082134 18 0 0.0 0.0 0.00 0.25 0.00 19 1024.2
20260902081340 18 0 0.0 0.0 0.00 0.25 0.00 19 1024.3
20260902080543 18 0 0.0 0.0 0.00 0.25 0.00 18 1024.1
20260902075736 18 0 0.0 0.0 0.00 0.25 0.00 18 1024.2
20260902074934 18 0 0.0 0.0 0.00 0.25 0.00 18 1024.3
20260902074135 18 0 0.0 0.0 0.00 0.25 0.00 18 1024.3
20260902073339 18 0 0.0 0.0 0.00 0.25 0.00 18 1024.3
20260902072550 18 0 0.0 0.0 0.00 0.25 0.00 18 1024.3
20260902071741 18 0 0.0 0.0 0.00 0.25 0.00 18 1024.3
20260902070934 18 0 0.0 0.0 0.00 0.25 0.00 18 1024.4
20260902065749 18 0 0.0 0.0 0.00 0.25 0.00 18 1024.4
20260902064949 18 0 0.0 0.0 0.00 0.25 0.00 18 1024.4
20260902064149 18 0 0.0 0.0 0.00 0.25 0.00 18 1024.4
20260902063351 18 0 0.0 0.0 0.00 0.25 0.00 18 1024.5
20260902062549 18 0 0.0 0.0 0.00 0.25 0.00 18 1024.4
20260902061749 18 0 0.0 0.0 0.00 0.25 0.00 17 1024.5
20260902060949 18 0 0.0 0.0 0.00 0.25 0.00 17 1024.6
20260902060150 18 0 0.0 0.0 0.00 0.25 0.00 17 1024.6
20260902055349 18 0 0.0 0.0 0.00 0.25 0.00 17 1024.7
20260902054553 18 0 0.0 0.0 0.00 0.25 0.00 17 1024.7
20260902053749 18 0 0.0 0.0 0.00 0.25 0.00 17 1024.7
20260902052949 18 0 0.0 0.0 0.00 0.25 0.00 17 1024.8
20260902052151 18 0 0.0 1.6 0.00 0.25 0.00 17 1024.9
20260902051351 18 0 0.0 1.6 0.00 0.25 0.00 17 1024.8
20260902050548 18 0 0.0 0.0 0.00 0.25 0.00 17 1024.7
20260902045749 18 0 0.0 1.6 0.00 0.25 0.00 17 1024.6
20260902044949 18 0 0.0 1.6 0.00 0.25 0.00 17 1024.6
20260902044149 19 0 0.0 0.0 0.00 0.25 0.00 17 1024.4
20260902043349 19 0 0.0 0.0 0.00 0.25 0.00 17 1024.2
20260902042549 19 0 0.0 0.0 0.00 0.25 0.00 17 1024.1
20260902041431 19 0 0.0 0.0 0.00 0.25 0.00 17 1024.0
20260902040631 19 0 0.0 0.0 0.00 0.25 0.00 16 1024.0
20260902035837 19 0 0.0 0.0 0.00 0.25 0.25 17 1023.9
20260902035030 18 0 0.0 0.0 0.00 0.25 0.25 17 1023.8
20260902034230 18 0 0.0 0.0 0.00 0.25 0.25 18 1023.8
20260902033431 18 0 0.0 0.0 0.00 0.25 0.25 17 1023.8
20260902032630 18 0 0.0 0.0 0.00 0.25 0.25 17 1023.7
20260902031830 19 0 0.0 0.0 0.00 0.25 0.25 17 1023.8
20260902031031 19 0 0.0 0.0 0.00 0.25 0.25 17 1023.6
20260902030233 19 0 0.0 0.0 0.00 0.25 0.25 17 1023.7
20260902025441 19 0 0.0 0.0 0.00 0.25 0.25 17 1023.7
20260902024631 19 0 0.0 0.0 0.00 0.25 0.25 17 1023.7
20260902023831 19 0 0.0 0.0 0.00 0.25 0.25 17 1023.8
20260902023031 19 0 0.0 0.0 0.00 0.25 0.25 18 1023.9
20260902022230 19 0 0.0 1.6 0.00 0.25 0.25 18 1024.0
20260902021434 19 0 0.0 0.0 0.00 0.25 0.25 17 1024.0
20260902020630 19 0 0.0 0.0 0.00 0.25 0.25 16 1023.9
20260902015829 19 0 0.0 0.0 0.00 0.25 0.25 17 1023.8
20260902015030 19 0 0.0 0.0 0.00 0.25 0.25 18 1023.8
20260902014230 19 0 0.0 0.0 0.00 0.25 0.25 18 1023.8
20260902013112 19 0 0.0 0.0 0.00 0.25 0.25 18 1023.7
20260902012311 19 0 0.0 0.0 0.00 0.25 0.25 19 1023.6
20260902011512 19 0 0.0 0.0 0.00 0.25 0.25 19 1023.4
20260902010714 19 0 0.0 0.0 0.00 0.25 0.25 19 1023.4
20260902005914 19 0 0.0 0.0 0.00 0.25 0.25 19 1023.3
20260902005112 19 0 0.0 0.0 0.00 0.25 0.25 20 1023.1
20260902004310 19 0 0.0 0.0 0.00 0.25 0.25 20 1022.9
20260902003511 19 0 0.0 0.0 0.00 0.25 0.25 20 1023.1
20260902002711 19 0 0.0 0.0 0.00 0.25 0.25 22 1023.1
20260902001911 19 0 0.0 0.0 0.00 0.25 0.25 23 1022.9
20260902001111 19 0 0.0 0.0 0.00 0.25 0.25 25 1022.7
20260902000330 19 0 0.0 0.0 0.00 0.25 0.25 26 1022.4
20260901235514 19 0 0.0 0.0 0.00 0.25 0.25 27 1022.2
20260901234710 19 0 0.0 0.0 0.00 0.25 0.25 30 1022.1
20260901233111 19 0 0.0 0.0 0.00 0.25 0.25 33 1021.9
20260901232311 20 0 0.0 0.0 0.00 0.25 0.25 33 1021.5
20260901231511 20 0 0.0 0.0 0.00 0.25 0.25 35 1021.5
20260901230711 20 0 0.0 0.0 0.05 0.25 0.25 39 1021.7
20260901225911 20 0 0.0 0.0 0.05 0.25 0.25 45 1021.8
20260901224536 20 0 0.0 1.6 0.05 0.25 0.25 52 1021.6
20260901223736 20 0 0.0 0.0 0.20 0.25 0.25 64 1021.7
20260901222936 20 0 0.0 0.0 0.25 0.25 0.25 68 1021.5
20260901222139 21 0 0.0 0.0 0.25 0.25 0.25 70 1021.7
20260901221349 21 0 0.0 1.6 0.25 0.25 0.25 79 1021.6
20260901220536 22 0 0.0 1.6 0.20 0.20 0.20 76 1021.6
20260901215738 22 0 0.0 1.6 0.20 0.20 0.20 78 1021.6
20260901214136 25 0 0.0 6.4 0.15 0.15 0.15 82 1021.7
20260901212537 28 0 0.0 1.6 0.00 0.00 0.00 75 1021.1
20260901211736 28 0 0.0 3.2 0.00 0.00 0.00 71 1020.6
20260901210935 28 0 0.0 6.4 0.00 0.00 0.00 73 1020.8
20260901210138 28 0 0.0 0.0 0.00 0.00 0.00 73 1020.8
20260901205345 28 0 0.0 0.0 0.00 0.00 0.00 72 1020.7
20260901204536 28 52 1.6 4.8 0.00 0.00 0.00 76 1020.9
20260901203738 27 0 0.0 0.0 0.00 0.00 0.00 75 1021.2
20260901202936 27 0 0.0 1.6 0.00 0.00 0.00 75 1020.9
20260901202145 27 0 0.0 4.8 0.00 0.00 0.00 77 1021.1
20260901201337 27 0 0.0 1.6 0.00 0.00 0.00 77 1021.2
20260901200311 27 0 0.0 1.6 0.00 0.00 0.00 75 1021.3
20260901195515 27 0 0.0 1.6 0.00 0.00 0.00 75 1021.3
20260901194708 27 0 0.0 8.0 0.00 0.00 0.00 72 1021.4
20260901193909 28 0 0.0 4.8 0.00 0.00 0.00 73 1021.4
20260901193111 28 0 0.0 6.4 0.00 0.00 0.00 70 1021.5
20260901192309 28 0 0.0 1.6 0.00 0.00 0.00 70 1021.6
20260901191509 29 0 0.0 1.6 0.00 0.00 0.00 71 1021.4
20260901190709 29 0 0.0 1.6 0.00 0.00 0.00 71 1021.6
20260901185909 29 0 0.0 1.6 0.00 0.00 0.00 70 1021.5
20260901185111 28 0 0.0 3.2 0.00 0.00 0.00 71 1021.6
20260901184308 28 0 0.0 3.2 0.00 0.00 0.00 73 1021.7
20260901183508 28 0 0.0 3.2 0.00 0.00 0.00 75 1021.8
20260901182709 27 0 0.0 1.6 0.00 0.00 0.00 76 1021.7
20260901181914 27 0 0.0 3.2 0.00 0.00 0.00 76 1021.8
20260901181109 27 0 0.0 3.2 0.00 0.00 0.00 79 1021.7
20260901180309 27 0 0.0 4.8 0.00 0.00 0.00 77 1021.7
20260901175509 27 0 0.0 4.8 0.00 0.00 0.00 78 1021.8
20260901174708 27 0 0.0 4.8 0.00 0.00 0.00 79 1021.8
20260901173911 26 0 0.0 3.2 0.00 0.00 0.00 79 1021.9
20260901173109 27 0 0.0 3.2 0.00 0.00 0.00 79 1021.9
20260901172310 27 0 0.0 1.6 0.00 0.00 0.00 77 1021.8
20260901170753 27 0 0.0 3.2 0.00 0.00 0.00 78 1021.7
20260901165956 27 0 0.0 11.3 0.00 0.00 0.00 78 1021.8